Weather History for KBTR - July, 2012

Change the Weather History Date:

Tuesday, July 24, 2012

  Actual Average Record
Temperature  
Mean Temperature 85 °F 83 °F  
Max Temperature 95 °F 92 °F 101 °F (1924)
Min Temperature 74 °F 74 °F 62 °F (1947)
Degree Days  
Heating Degree Days 0 0  
Month to date heating degree days 0 0  
Since 1 June heating degree days 0 0  
Since 1 July heating degree days 0 0  
Cooling Degree Days 20 18  
Month to date cooling degree days 430 432  
Year to date cooling degree days 1703 1481  
Since 1 June cooling degree days 890 916  
Growing Degree Days 34 (Base 50)    
Moisture  
Dew Point 74 °F    
Average Humidity 72    
Maximum Humidity 94    
Minimum Humidity 49    
Precipitation  
Precipitation T in 0.15 in 2.70 in (1897)
Month to date precipitation 6.36 3.87  
Year to date precipitation 37.63 34.80  
Snow  
Snow 0.00 in - - ()
Month to date snowfall 0.0  
Since 1 June snowfall 0.0  
Since 1 July snowfall 0.0  
Snow Depth 0.00 in    
Sea Level Pressure  
Sea Level Pressure 30.08 in    
Wind  
Wind Speed 2 mph (SSW)    
Max Wind Speed 14 mph    
Max Gust Speed 33 mph    
Visibility 10 miles    
Events      
T = Trace of Precipitation, MM = Missing Value Source: NWS Daily Summary

Daily Weather History Graph

Daily Weather History Graph

Search for Another Location

Airport or City:

Trip Planner

Search our weather history database for the weather conditions in past years. The results will help you decide how hot, cold, wet, or windy it might be!

Date:

Astronomy

Jul. 24, 2012 Rise Set
Actual Time 6:18 AM CDT 8:03 PM CDT
Civil Twilight 5:51 AM CDT 8:30 PM CDT
Nautical Twilight 5:19 AM CDT 9:02 PM CDT
Astronomical Twilight 4:45 AM CDT 9:35 PM CDT
Moon 11:45 AM CDT (7/24) 11:24 PM CDT (7/24)
Length of Visible Light 14h 38m
Length of Day
13h 45m
Waxing Crescent, 32% of the Moon is Illuminated
Jul 24
Waxing Crescent
Jul 26
First Quarter
Aug 1
Full
Aug 9
Last Quarter
Aug 17
New

Hourly Weather History & Observations

Time (CDT) Temp. Heat Index Dew Point Humidity Pressure Visibility Wind Dir Wind Speed Gust Speed Precip Events Conditions
12:53 AM 75.9 °F - 73.9 °F 94% 30.10 in 10.0 mi Calm Calm - N/A   Clear
1:53 AM 75.0 °F - 73.9 °F 96% 30.10 in 9.0 mi Calm Calm - N/A   Unknown
2:53 AM 75.9 °F - 73.9 °F 94% 30.10 in 10.0 mi Calm Calm - N/A   Clear
3:53 AM 75.0 °F - 73.0 °F 94% 30.10 in 10.0 mi Calm Calm - N/A   Clear
4:53 AM 75.0 °F - 73.0 °F 94% 30.12 in 10.0 mi Calm Calm - N/A   Mostly Cloudy
5:53 AM 75.0 °F - 73.0 °F 94% 30.13 in 10.0 mi Calm Calm - N/A   Partly Cloudy
6:53 AM 75.0 °F - 73.0 °F 94% 30.14 in 8.0 mi Calm Calm - N/A   Clear
7:53 AM 78.1 °F - 75.0 °F 90% 30.14 in 9.0 mi Calm Calm - N/A   Clear
8:53 AM 82.9 °F 90.8 °F 75.9 °F 79% 30.14 in 10.0 mi Calm Calm - N/A   Clear
9:53 AM 87.1 °F 97.3 °F 75.9 °F 69% 30.13 in 10.0 mi Calm Calm - N/A   Clear
10:27 AM 87.8 °F 97.6 °F 75.2 °F 66% 30.13 in 10.0 mi Calm Calm - N/A   Mostly Cloudy
10:50 AM 87.8 °F 97.6 °F 75.2 °F 66% 30.13 in 10.0 mi Calm Calm - N/A   Scattered Clouds
10:53 AM 88.0 °F 96.5 °F 73.9 °F 63% 30.12 in 10.0 mi Calm Calm - N/A   Partly Cloudy
11:53 AM 88.0 °F 96.5 °F 73.9 °F 63% 30.12 in 10.0 mi Variable 3.5 mph - N/A   Scattered Clouds
12:53 PM 89.1 °F 97.0 °F 73.0 °F 59% 30.09 in 10.0 mi Variable 6.9 mph - N/A   Scattered Clouds
1:53 PM 91.0 °F 99.3 °F 73.0 °F 55% 30.07 in 10.0 mi Calm Calm - N/A   Scattered Clouds
2:53 PM 91.9 °F 98.4 °F 71.1 °F 50% 30.04 in 10.0 mi SSW 3.5 mph - N/A   Scattered Clouds
3:53 PM 93.2 °F 100.5 °F 71.6 °F 49% 30.03 in 10.0 mi Calm Calm - N/A   Scattered Clouds
4:53 PM 93.9 °F 103.4 °F 73.0 °F 51% 30.01 in 10.0 mi Calm Calm - N/A   Scattered Clouds
5:53 PM 91.9 °F 101.3 °F 73.9 °F 55% 30.00 in 10.0 mi SW 8.1 mph - N/A   Mostly Cloudy
6:53 PM 89.1 °F 97.0 °F 73.0 °F 59% 30.01 in 10.0 mi Calm Calm - 0.00 in   Clear
7:53 PM 87.1 °F 95.4 °F 73.9 °F 65% 30.01 in 10.0 mi SSE 3.5 mph - N/A   Clear
8:53 PM 86.0 °F 95.1 °F 75.0 °F 70% 30.01 in 10.0 mi Calm Calm - N/A   Clear
9:53 PM 84.9 °F 94.1 °F 75.9 °F 74% 30.02 in 10.0 mi SW 6.9 mph - N/A   Clear
10:53 PM 82.9 °F 90.8 °F 75.9 °F 79% 30.03 in 10.0 mi North - - N/A   Clear
11:53 PM 82.0 °F 89.4 °F 75.9 °F 82% 30.04 in 10.0 mi SW 8.1 mph - N/A   Clear